Date String (YYYY-MM-DD hh:mm:ss) UTC,Instrument flags,Ambient pressure (hPa),Sample flow (lpm),Bypass flow (lpm),Sample temperature (°C),Ambient temperature (°C),ASC tube jacket temperature (°C),LED temperature (°C),Box temperature (°C),Sample RH (%),Span deviation,Mass concentration (μg/m³),Mass concentration (μg/m³),Mass concentration (μg/m³)
DateTimeUTC,F1_M11,P_M11,Q1_M11,Q2_M11,T1_M11,T2_M11,T3_M11,T4_M11,T5_M11,U1_M11,ZSPAN_M11,X2_M11,X0_M11,X1_M11
2021-10-26 00:00:00,,0817.5,4.99,0.00,30.0,28.9,00.0,38.9,31.9,14.2,0000.0,0010.04,0034.70,0006.98
2021-10-26 00:01:00,,0817.5,5.01,0.00,30.0,29.0,00.0,38.9,31.9,14.2,0000.0,0010.11,0036.91,0007.00
2021-10-26 00:02:00,,0817.6,4.98,0.00,30.0,29.1,00.0,39.0,31.9,14.1,0000.8,0010.06,0035.38,0007.02
2021-10-26 00:03:00,,0817.6,5.00,0.00,30.1,29.1,00.0,39.0,32.0,14.1,0000.0,0010.00,0034.64,0007.04
2021-10-26 00:04:00,,0817.6,5.01,0.00,30.1,29.2,00.0,39.0,32.0,14.1,0000.8,0009.99,0036.20,0007.05
2021-10-26 00:05:00,,0817.5,4.99,0.00,30.2,29.2,00.0,39.0,32.0,14.1,0004.2,0010.06,0037.19,0007.09
2021-10-26 00:06:00,,0817.5,5.01,0.00,30.2,29.3,00.0,39.1,32.1,14.0,0004.1,0010.08,0037.49,0007.11
2021-10-26 00:07:00,,0817.5,5.00,0.00,30.2,29.3,00.0,39.1,32.1,13.9,0004.1,0009.99,0037.29,0007.09
2021-10-26 00:08:00,,0817.5,4.99,0.00,30.2,29.4,00.0,39.1,32.1,13.9,0004.7,0009.86,0036.66,0007.06
2021-10-26 00:09:00,,0817.6,5.00,0.00,30.3,29.3,00.0,39.1,32.1,13.9,0006.0,0009.75,0036.64,0007.03
2021-10-26 00:10:00,,0817.5,5.02,0.00,30.2,27.4,00.0,39.1,31.8,13.9,0006.2,0009.64,0035.85,0007.03
2021-10-26 00:11:00,,0817.5,5.00,0.00,30.1,26.3,00.0,39.1,31.5,14.0,0005.8,0009.48,0033.52,0007.01
2021-10-26 00:12:00,,0817.6,5.01,0.00,30.0,26.5,00.0,39.1,31.5,14.0,0006.5,0009.34,0031.28,0006.97
2021-10-26 00:13:00,,0817.6,4.99,0.00,29.9,27.0,00.0,39.1,31.5,14.0,0006.0,0009.32,0030.85,0006.94
2021-10-26 00:14:00,,0817.5,5.01,0.00,29.9,27.4,00.0,39.0,31.5,14.0,0006.3,0009.34,0030.52,0006.90
2021-10-26 00:15:00,,0817.5,4.99,0.00,29.9,27.8,00.0,39.0,31.6,13.9,0006.2,0009.23,0028.73,0006.83
2021-10-26 00:16:00,,0817.5,5.00,0.00,29.9,28.0,00.0,39.0,31.7,13.9,0005.6,0009.06,0027.34,0006.72
2021-10-26 00:17:00,,0817.5,5.01,0.00,29.9,28.3,00.0,39.0,31.7,13.9,0005.6,0008.92,0027.11,0006.63
2021-10-26 00:18:00,,0817.5,4.99,0.00,30.0,28.5,00.0,39.0,31.7,13.9,0005.7,0008.79,0026.34,0006.55
2021-10-26 00:19:00,,0817.4,5.01,0.00,30.0,28.7,00.0,39.0,31.8,13.8,0005.3,0008.74,0027.67,0006.48
2021-10-26 00:20:00,,0817.5,4.99,0.00,30.0,28.8,00.0,39.0,31.9,13.8,0004.4,0008.67,0027.32,0006.40
2021-10-26 00:21:00,,0817.4,5.00,0.00,30.0,28.9,00.0,39.0,31.9,13.8,0003.4,0008.51,0027.05,0006.31
2021-10-26 00:22:00,,0817.5,5.01,0.00,30.1,28.5,00.0,39.0,30.4,13.8,0005.1,0008.43,0026.70,0006.22
2021-10-26 00:23:00,,0817.5,5.00,0.00,30.1,29.0,00.0,39.0,32.0,13.8,0003.8,0008.35,0026.87,0006.15
2021-10-26 00:24:00,,0817.5,4.99,0.00,30.1,29.1,00.0,39.1,32.0,13.7,0000.2,0008.23,0026.18,0006.07
2021-10-26 00:25:00,,0817.5,5.00,0.00,30.2,29.2,00.0,39.1,32.0,13.7,0000.0,0008.13,0025.66,0005.99
2021-10-26 00:26:00,,0817.5,5.00,0.00,30.2,29.2,00.0,39.1,32.0,13.6,0000.0,0008.07,0025.58,0005.92
2021-10-26 00:27:00,,0817.5,4.99,0.00,30.2,29.3,00.0,39.1,32.0,13.6,0000.0,0008.01,0025.43,0005.88
2021-10-26 00:28:00,,0817.5,5.00,0.00,30.2,29.3,00.0,39.2,32.1,13.6,0000.0,0007.99,0024.26,0005.86
2021-10-26 00:29:00,,0817.6,5.01,0.00,30.3,29.3,00.0,39.2,32.1,13.6,0000.0,0008.01,0026.25,0005.85
2021-10-26 00:30:00,,0817.6,5.00,0.00,30.3,29.4,00.0,39.2,32.1,13.5,0000.0,0008.00,0026.74,0005.85
2021-10-26 00:31:00,,0817.5,4.99,0.00,30.3,28.2,00.0,39.2,31.9,13.5,0000.0,0007.95,0026.48,0005.82
2021-10-26 00:32:00,,0817.5,5.00,0.00,30.2,26.5,00.0,39.2,31.6,13.6,0000.0,0007.96,0027.36,0005.79
2021-10-26 00:33:00,,0817.5,4.99,0.00,30.0,26.5,00.0,39.2,31.5,13.6,0000.0,0007.82,0028.20,0005.72
2021-10-26 00:34:00,,0817.5,5.01,0.00,30.0,26.9,00.0,39.1,31.5,13.8,0000.0,0007.69,0028.56,0005.63
2021-10-26 00:35:00,,0817.5,5.01,0.00,29.9,27.3,00.0,39.1,31.5,13.8,0000.0,0007.54,0030.04,0005.51
2021-10-26 00:36:00,,0817.5,4.98,0.00,29.9,27.6,00.0,39.0,31.6,13.8,0000.0,0007.25,0031.21,0005.35
2021-10-26 00:37:00,,0817.5,5.01,0.00,29.9,27.9,00.0,39.0,31.6,13.7,0000.0,0007.00,0031.25,0005.16
2021-10-26 00:38:00,,0817.5,5.01,0.00,29.9,28.1,00.0,39.0,31.6,13.7,0000.0,0006.74,0031.05,0004.94
2021-10-26 00:39:00,,0817.5,5.00,0.00,29.9,28.3,00.0,39.0,31.7,13.6,0000.0,0006.38,0031.41,0004.66
2021-10-26 00:40:00,,0817.5,4.99,0.00,29.9,28.5,00.0,39.0,31.7,13.5,0000.0,0006.03,0029.44,0004.36
2021-10-26 00:41:00,,0817.5,5.01,0.00,30.0,28.6,00.0,39.0,31.7,13.5,0000.0,0005.71,0026.88,0004.05
2021-10-26 00:42:00,,0817.5,5.01,0.00,30.0,28.7,00.0,39.0,31.8,13.5,0000.0,0005.34,0025.39,0003.77
2021-10-26 00:43:00,,0817.5,4.99,0.00,30.0,28.8,00.0,39.0,31.8,13.4,0000.0,0005.02,0024.36,0003.52
2021-10-26 00:44:00,,0817.6,5.00,0.00,30.0,28.9,00.0,39.0,31.9,13.4,0000.0,0004.85,0023.44,0003.29
2021-10-26 00:45:00,,0817.6,5.01,0.00,30.1,29.0,00.0,39.0,31.9,13.3,0000.0,0004.61,0022.21,0003.04
2021-10-26 00:46:00,,0817.6,4.99,0.00,30.1,29.1,00.0,39.1,31.9,13.3,0000.0,0004.36,0020.42,0002.73
2021-10-26 00:47:00,,0817.6,5.00,0.00,30.1,29.1,00.0,39.1,31.9,13.3,0000.0,0004.24,0019.44,0002.51
2021-10-26 00:48:00,,0817.6,5.01,0.00,30.1,29.2,00.0,39.1,32.0,13.5,0000.0,0004.28,0019.18,0002.53
2021-10-26 00:49:00,,0817.5,4.99,0.00,30.2,29.2,00.0,39.1,32.0,13.5,0000.0,0004.30,0018.92,0002.62
2021-10-26 00:50:00,,0817.5,5.01,0.00,30.2,29.2,00.0,39.1,32.0,13.5,0000.0,0004.34,0018.29,0002.74
2021-10-26 00:51:00,,0817.5,5.01,0.00,30.2,29.3,00.0,39.2,32.0,13.5,0000.0,0004.46,0018.65,0002.96
2021-10-26 00:52:00,,0817.6,5.01,0.00,30.2,29.3,00.0,39.2,32.0,13.5,0000.0,0004.65,0018.85,0003.19
2021-10-26 00:53:00,,0817.5,5.00,0.00,30.2,29.3,00.0,39.2,32.1,13.5,0000.0,0004.80,0018.34,0003.32
2021-10-26 00:54:00,,0817.5,4.99,0.00,30.3,29.4,00.0,39.2,32.1,13.5,0000.0,0004.99,0017.82,0003.46
2021-10-26 00:55:00,,0817.6,4.99,0.00,30.3,29.4,00.0,39.2,32.1,13.5,0000.0,0005.11,0018.18,0003.62
2021-10-26 00:56:00,,0817.6,4.99,0.00,30.3,29.4,00.0,39.2,32.1,13.6,0000.0,0005.36,0019.38,0003.82
2021-10-26 00:57:00,,0817.5,5.01,0.00,30.3,28.5,00.0,39.3,31.9,13.6,0000.0,0005.72,0019.73,0004.03
2021-10-26 00:58:00,,0817.5,5.01,0.00,30.2,26.5,00.0,39.2,31.6,13.7,0000.0,0006.04,0020.53,0004.23
2021-10-26 00:59:00,,0817.5,5.00,0.00,30.1,26.3,00.0,39.2,31.4,13.8,0000.0,0006.32,0022.13,0004.38
